Regional Weather Roundup
Issued by NWS

Home | Current Version | Previous Version | Text Only | Print | Product List | Glossary On
Versions: 1 2 3 4 5 6 7 8 9 10 11 12 13 14 15 16 17 18 19 20 21 22 23 24 25 26 27 28 29 30 31 32 33 34 35 36 37 38 39 40 41 42 43 44 45 46 47 48 49 50
000
ASUS44 KFWD 240010
RWRTX
NORTH TEXAS HOURLY WEATHER ROUNDUP
NATIONAL WEATHER SERVICE FORT WORTH TX
700 PM CDT SAT SEP 23 2017

NOTE: "FAIR" INDICATES FEW OR NO CLOUDS BELOW 12,000 FEET WITH NO
SIGNIFICANT WEATHER AND/OR OBSTRUCTIONS TO VISIBILITY.

TXZ118-119-240100-
DALLAS/FORT WORTH METROPLEX

CITY           SKY/WX    TMP DP  RH WIND       PRES   REMARKS
DFW AIRPORT    PTCLDY    90  64  42 SE12      29.84S HX  91
6HR MIN TEMP:  89; 6HR MAX TEMP:  96;

DALLAS LOVE    PTCLDY    90  63  40 SE13      29.85S HX  91
6HR MIN TEMP:  88; 6HR MAX TEMP:  95;

FTW MEACHAM    PTCLDY    91  63  39 SE14      29.84S HX  92
6HR MIN TEMP:  90; 6HR MAX TEMP:  95;

DAL-EXECUTIVE  PTCLDY    89  64  43 SE13      29.85S HX  90
6HR MIN TEMP:  88; 6HR MAX TEMP:  95;

FTW-ALLIANCE   PTCLDY    89  63  41 SE9       29.85R HX  90
6HR MIN TEMP:  88; 6HR MAX TEMP:  95;

FTW-NAS-JRB    CLEAR     91  60  35 S13       29.85R HX  90
6HR MIN TEMP:  89; 6HR MAX TEMP:  95;

FTW-SPINKS     PTCLDY    91  59  33 SE14      29.87R HX  90
ARLINGTON      CLEAR     90  64  42 E12       29.85S HX  91
6HR MIN TEMP:  88; 6HR MAX TEMP:  94;

GRAND PRAIRIE  CLEAR     90  57  33 E8        29.86S
ADDISON        CLEAR     90  61  37 SE8       29.87S
MESQUITE       PTCLDY    88  63  42 S7        29.86S
LANCASTER      CLEAR     89  64  42 SE9       29.87S HX  90
6HR MIN TEMP:  89; 6HR MAX TEMP:  95;

$$

TXZ091>094-102>105-117-120-121-131>134-240100-
NORTH CENTRAL TEXAS

CITY           SKY/WX    TMP DP  RH WIND       PRES   REMARKS
SHRMAN/DENISON CLEAR     87  65  47 SE7       29.88S
6HR MIN TEMP:  87; 6HR MAX TEMP:  92;

GAINESVILLE    CLEAR     86  63  45 SE9       29.89S
6HR MIN TEMP:  86; 6HR MAX TEMP:  90;

BOWIE          CLEAR     84  65  51 SE5       29.87S
6HR MIN TEMP:  84; 6HR MAX TEMP:  90;

BRIDGEPORT     PTCLDY    87  61  41 SE5       29.88R
6HR MIN TEMP:  87; 6HR MAX TEMP:  91;

DECATUR        CLEAR     87  62  44 E7        29.87R
6HR MIN TEMP:  87; 6HR MAX TEMP:  91;

DENTON         CLEAR     88  64  44 SE9       29.85S
6HR MIN TEMP:  87; 6HR MAX TEMP:  92;

MCKINNEY       CLEAR     87  68  52 SE5       29.86S HX  90
6HR MIN TEMP:  87; 6HR MAX TEMP:  92;

BONHAM         CLEAR     86  65  48 SE7       29.88S
6HR MIN TEMP:  86; 6HR MAX TEMP:  92;

GREENVILLE     CLEAR     90  64  43 SE7       29.88R HX  91
ROCKWALL       CLEAR     88  64  45 S6        29.87R
6HR MIN TEMP:  88; 6HR MAX TEMP:  93;

TERRELL        CLEAR     89  63  41 S7        29.87R HX  90
6HR MIN TEMP:  89; 6HR MAX TEMP:  94;

WAXAHACHIE     CLEAR     89  61  39 SE5       29.87S
6HR MIN TEMP:  87; 6HR MAX TEMP:  94;

CLEBURNE       CLEAR     88  63  42 SE13      29.87S
GRANBURY       CLEAR     90  58  34 SE12      29.86S
6HR MIN TEMP:  90; 6HR MAX TEMP:  93;

$$

TXZ083>090-098>101-113>116-127>130-139>142-154-155-240100-
WESTERN NORTH TEXAS

CITY           SKY/WX    TMP DP  RH WIND       PRES   REMARKS
WICHITA FALLS  CLEAR     87  60  40 SE16G25   29.85R
6HR MIN TEMP:  87; 6HR MAX TEMP:  92;

WF-KICKAPOO    CLEAR     87  62  42 SE10G20   29.88R
6HR MIN TEMP:  87; 6HR MAX TEMP:  91;

VERNON         PTCLDY    88  52  29 SE14G23   29.85R
ABILENE        PTCLDY    86  60  41 SE21      29.85R
6HR MIN TEMP:  84; 6HR MAX TEMP:  91;

ABILENE-DYESS  CLEAR     87  61  41 SE14      29.83R
6HR MIN TEMP:  86; 6HR MAX TEMP:  92;

GRAHAM         CLEAR     88  60  38 SE10G18   29.84R
6HR MIN TEMP:  88; 6HR MAX TEMP:  94;

BRECKENRIDGE   CLEAR     89  57  34 SE13G23   29.85R HAZE
6HR MIN TEMP:  88; 6HR MAX TEMP:  93;

CISCO          CLEAR     88  61  40 SE12G24   29.87R
EASTLAND       PTCLDY    86  61  42 SE15      29.86R
6HR MIN TEMP:  85; 6HR MAX TEMP:  92;

RANGER         CLEAR     85  58  40 SE14      29.88R
6HR MIN TEMP:  64; 6HR MAX TEMP:  97;

MINERAL WELLS  CLEAR     88  58  36 SE14      29.84S
6HR MIN TEMP:  88; 6HR MAX TEMP:  93;

STEPHENVILLE   CLEAR     87  58  38 SE10G16   29.90R
6HR MIN TEMP:  86; 6HR MAX TEMP:  92;

COMANCHE       PTCLDY    87  60  40 SE13G22   29.86S
6HR MIN TEMP:  87; 6HR MAX TEMP:  93;

BROWNWOOD      PTCLDY    86  59  39 SE15      29.85R
COLEMAN        PTCLDY    86  58  38 SE16      29.86R
6HR MIN TEMP:  85; 6HR MAX TEMP:  91;

$$

TXZ143>147-156>162-174-175-240100-
CENTRAL TEXAS

CITY           SKY/WX    TMP DP  RH WIND       PRES   REMARKS
WACO           CLEAR     89  64  43 SE9       29.85S HX  90
6HR MIN TEMP:  89; 6HR MAX TEMP:  94;

WACO-TSTC      CLEAR     90  63  40 SE7       29.85S HX  90
HILLSBORO      CLEAR     90  64  41 SE10      29.86S HX  91
6HR MIN TEMP:  88; 6HR MAX TEMP:  94;

CORSICANA      CLEAR     88  65  46 SE8       29.87S HX  90
6HR MIN TEMP:  88; 6HR MAX TEMP:  94;

MEXIA          CLEAR     87  64  45 E12G17    29.86S
6HR MIN TEMP:  87; 6HR MAX TEMP:  93;

HEARNE         CLEAR    N/A N/A N/A E3        29.87S
CAMERON        CLEAR     87  67  51 SE5       29.85S HX  90
6HR MIN TEMP:  87; 6HR MAX TEMP:  92;

TEMPLE         PTCLDY    87  64  46 SE13      29.86S
6HR MIN TEMP:  85; 6HR MAX TEMP:  92;

KILLEEN        CLEAR     86  62  44 SE15      29.85S
6HR MIN TEMP:  85; 6HR MAX TEMP:  91;

FORT HOOD      CLEAR     86  65  49 SE13      29.83S
GATESVILLE     CLEAR     88  63  42 SE8G14    29.87S
HAMILTON       CLEAR     87  62  42 SE14      29.88R
6HR MIN TEMP:  87; 6HR MAX TEMP:  92;

LAMPASAS       CLEAR     86  66  50 SE12      29.86R
6HR MIN TEMP:  86; 6HR MAX TEMP:  91;

$$

TXZ095>097-106>112-122>126-135>138-148>153-164>167-240100-
EAST TEXAS

CITY           SKY/WX    TMP DP  RH WIND       PRES   REMARKS
PARIS          PTCLDY    85  68  56 SE10      29.89F
6HR MIN TEMP:  85; 6HR MAX TEMP:  92;

SULPHUR SPRNGS MOCLDY    83  67  60 SW7       29.92R
6HR MIN TEMP:  83; 6HR MAX TEMP:  94;

MOUNT PLEASANT CLEAR     78  74  88 CALM      29.90S
6HR MIN TEMP:  75; 6HR MAX TEMP:  94; 6HR PCP:  0.16;

GILMER         CLEAR     83  68  60 CALM      29.88F
6HR MIN TEMP:  83; 6HR MAX TEMP:  93;

MINEOLA        PTCLDY    82  72  69 CALM      29.88S
TYLER          LGT RAIN  77  72  84 W15       29.88S
6HR MIN TEMP:  77; 6HR MAX TEMP:  94; 6HR PCP:  0.16;

LONGVIEW       CLEAR     87  69  54 E5        29.87S HX  91
6HR MIN TEMP:  87; 6HR MAX TEMP:  93;

MARSHALL       CLEAR     85  67  54 CALM      29.91S
6HR MIN TEMP:  80; 6HR MAX TEMP:  92; 6HR PCP:  0.03;

ATHENS         CLEAR     86  63  45 SE5       29.86S
PALESTINE      PTCLDY    86  69  57 SE5       29.89S HX  90
JACKSONVILLE   CLEAR     85  69  58 SE6       29.92S
HENDERSON      CLEAR     79  75  88 CALM      29.90S
6HR MIN TEMP:  79; 6HR MAX TEMP:  94; 6HR PCP:  0.06;

CENTER         CLEAR     86  77  76 MISG      29.91S HX  97
6HR MIN TEMP:  86; 6HR MAX TEMP:  95;

NACOGDOCHES    MOCLDY    83  73  72 E3        29.89F
6HR MIN TEMP:  83; 6HR MAX TEMP:  91;

$$

SUPPLEMENTAL OBSERVATIONS (NWS FORT WORTH AREA)

CITY           SKY/WX    TMP DP  RH WIND       PRES   REMARKS
CADDO GRASSLND   N/A     84  64  51 E2          N/A
PAT MAYSE LAKE   N/A     88  66  48 E2          N/A  HX  90
GREENVILLE       N/A     84  66  54 E9G18       N/A
LBJ GRASSLAND    N/A    N/A N/A N/A SE7         N/A
POSSUM KINGDOM   N/A     88  59  37 SE12G26     N/A
GRANBURY         N/A     90  59  35 SE12G20     N/A
MCGREGOR         N/A     88  63  42 SE8G17      N/A
TEMPLE           N/A     88  64  45 SE6         N/A


USA.gov is the U.S. government's official web portal to all federal, state and local government web resources and services.